Weather in Uvarovka

Russia / Samara Oblast     53°07′25″N   48°21′41″E
temp.,
°C
wind,
m/s
gust,
m/s
humid.,
%
clouds,
%
prec.,
mm/h
press.,
hPa
HPBL,
m
27 february, sat
sat2701:00−1ssw41197100 1.6 1000322
04:00+1w6139297 1.6 1000607
07:00+1wsw51193100 0.1 999559
10:00+1wsw61296100 0.2 999590
13:00+1wsw510100100 0.1 998536
16:00+1wsw51099100 0.1 998501
19:000wsw4898100 0.3 999326
22:00−11nnw71395100 2.5 1002496
28 february, sun
sun2801:00−14nnw81392100 0.3 1004494
04:00−15nnw81391100 0.4 1006491
07:00−17nw7149181 0.0 1008352
10:00−16nw7129065 0.0 1009394
13:00−13nnw6108753 0.0 1010540
16:00−11nnw698654 0.0 1011628
19:00−15nnw4109224 0.0 1013204
22:00−18nw479412 0.0 1016118
1 march, mon
mon101:00−19nw349769 0.0 101768
04:00−19nw369754 0.0 1019101
07:00−20nw34970 0.0 102173
10:00−18nnw46930 0.0 1023254
13:00−14nw359161 0.0 1023345
16:00−11nnw259064 0.0 1024419
19:00−15wsw119894 0.0 102320
22:00−15wsw339378 0.0 102321
2 march, tue
tue201:00−16sw44936 0.0 102177
04:00−14sw5109351 0.0 1018208
07:00−12sw71494100 0.0 1014288
10:00−8sw81493100 0.6 1011481
13:00−3sw81394100 0.9 1007674
16:00−1sw81395100 2.1 1004752
19:00−1wsw61195100 0.8 1002448
22:00−1wnw499598 1.2 1002298
3 march, wed
wed301:00−5wnw6129440 0.0 1002272
04:00−3nw6129364 0.1 1003403
07:00−5wnw6119491 0.1 1003404
10:00−5nw6119274 0.1 1005423
13:00−2nw698880 0.0 1005814
16:00−2nw699389 0.3 1006741
19:00−4nw61294100 0.4 1008622
22:00−5nw7149296 0.5 1011550